Tracking 33188 objects as of 10-Feb-2026
HD Live streaming from Space Station
objects crossing your sky now

STARLINK-34371

Track STARLINK-34371 now!
10-day predictions
STARLINK-34371 is classified as:


NORAD ID: 64756
Int'l Code: 2025-147B
Perigee: 481.6 km
Apogee: 483.2 km
Inclination: 53.2 °
Period: 94.1 minutes
Semi major axis: 6853 km
RCS: Unknown
Launch date: July 8, 2025
Source: United States (US)
Launch site: AIR FORCE EASTERN TEST RANGE (AFETR)
Your satellite tracking list
Your tracking list is empty




NASA's NSSDC Master Catalog

Two Line Element Set (TLE):
1 64756U 25147B   26041.28905292  .00028260  00000-0  96284-3 0  9997
2 64756  53.1618  10.2335 0001146  87.2909 272.8223 15.30193325 34505
Source of the keplerian elements: AFSPC